CEB635 RPLL-RPVP

Flight info

Callsign CEB635
Flight time 0h 54m
Altitude 32000
Route BUCAL2P BUCAL M646 NOMYO NOMYO2W
Aircraft A320/M-SDE3FGHIRWY/LB1

Departure

Time 2026-04-17 05:40
Airport Ninoy Aquino International Airport (RPLL)

Arrival

Time 2026-04-17 06:34
Airport Puerto Princesa International Airport / PAF Antonio Bautista Air Base (RPVP)
Time Latitude Longitude Altitude Speed Heading
2026-04-17 05:18 14.51755 121.01426 82 ft 0 kts 46°
2026-04-17 05:26 14.51750 121.01420 82 ft 2 kts 46°
2026-04-17 05:27 14.51739 121.01409 82 ft 2 kts 46°
2026-04-17 05:27 14.51729 121.01398 82 ft 2 kts 57°
2026-04-17 05:27 14.51722 121.01383 82 ft 2 kts 68°
2026-04-17 05:27 14.51717 121.01369 82 ft 2 kts 79°
2026-04-17 05:28 14.51716 121.01354 82 ft 2 kts 91°
2026-04-17 05:28 14.51717 121.01337 82 ft 2 kts 102°
2026-04-17 05:28 14.51721 121.01323 82 ft 2 kts 114°
2026-04-17 05:28 14.51729 121.01309 82 ft 2 kts 125°
2026-04-17 05:29 14.51735 121.01300 82 ft 0 kts 133°
2026-04-17 05:29 14.51739 121.01296 82 ft 0 kts 135°
2026-04-17 05:32 14.51739 121.01297 82 ft 0 kts 135°
2026-04-17 05:32 14.51725 121.01311 82 ft 4 kts 135°
2026-04-17 05:32 14.51692 121.01344 82 ft 8 kts 135°
2026-04-17 05:32 14.51660 121.01376 82 ft 10 kts 135°
2026-04-17 05:33 14.51584 121.01457 82 ft 12 kts 135°
2026-04-17 05:33 14.51521 121.01521 81 ft 13 kts 134°
2026-04-17 05:33 14.51455 121.01592 81 ft 13 kts 134°
2026-04-17 05:33 14.51386 121.01662 82 ft 14 kts 135°
2026-04-17 05:34 14.51316 121.01734 82 ft 14 kts 134°
2026-04-17 05:34 14.51243 121.01810 81 ft 14 kts 135°
2026-04-17 05:34 14.51170 121.01885 81 ft 15 kts 135°
2026-04-17 05:34 14.51094 121.01962 81 ft 15 kts 135°
2026-04-17 05:35 14.51065 121.01994 81 ft 4 kts 120°
2026-04-17 05:35 14.51063 121.02027 81 ft 5 kts 67°
2026-04-17 05:35 14.51084 121.02065 81 ft 6 kts 60°
2026-04-17 05:35 14.51109 121.02110 81 ft 7 kts 60°
2026-04-17 05:36 14.51137 121.02161 81 ft 8 kts 60°
2026-04-17 05:36 14.51170 121.02221 81 ft 9 kts 61°
2026-04-17 05:36 14.51205 121.02286 81 ft 10 kts 60°
2026-04-17 05:36 14.51244 121.02356 81 ft 11 kts 60°
2026-04-17 05:37 14.51286 121.02431 81 ft 12 kts 60°
2026-04-17 05:37 14.51331 121.02510 81 ft 12 kts 59°
2026-04-17 05:37 14.51378 121.02593 81 ft 13 kts 60°
2026-04-17 05:37 14.51409 121.02649 81 ft 13 kts 60°
2026-04-17 05:38 14.51473 121.02767 81 ft 14 kts 60°
2026-04-17 05:38 14.51500 121.02819 82 ft 3 kts 79°
2026-04-17 05:38 14.51488 121.02840 82 ft 4 kts 144°
2026-04-17 05:38 14.51451 121.02863 82 ft 7 kts 150°
2026-04-17 05:39 14.51400 121.02882 81 ft 6 kts 186°
2026-04-17 05:39 14.51364 121.02854 81 ft 3 kts 240°
2026-04-17 05:39 14.51315 121.02766 82 ft 41 kts 240°
2026-04-17 05:39 14.51051 121.02292 82 ft 109 kts 239°
2026-04-17 05:40 14.50575 121.01440 118 ft 158 kts 240°
2026-04-17 05:40 14.50028 121.00426 569 ft 164 kts 240°
2026-04-17 05:40 14.49452 120.99397 1166 ft 167 kts 239°
2026-04-17 05:40 14.48857 120.98346 1794 ft 169 kts 240°
2026-04-17 05:41 14.48246 120.97263 2180 ft 180 kts 240°
2026-04-17 05:41 14.47592 120.96096 2469 ft 196 kts 240°
2026-04-17 05:41 14.46871 120.94806 2703 ft 219 kts 240°
2026-04-17 05:41 14.46070 120.93372 3063 ft 237 kts 240°
2026-04-17 05:42 14.45214 120.91837 3449 ft 255 kts 240°
2026-04-17 05:42 14.44292 120.90186 3935 ft 270 kts 240°
2026-04-17 05:42 14.43239 120.88563 4615 ft 276 kts 226°
2026-04-17 05:42 14.41691 120.87437 5342 ft 279 kts 202°
2026-04-17 05:43 14.39843 120.86738 6103 ft 282 kts 198°
2026-04-17 05:43 14.37971 120.86088 6850 ft 287 kts 198°
2026-04-17 05:43 14.36080 120.85431 7593 ft 292 kts 198°
2026-04-17 05:43 14.34145 120.84751 8344 ft 296 kts 198°
2026-04-17 05:44 14.32178 120.84053 9062 ft 300 kts 197°
2026-04-17 05:44 14.30186 120.83343 9777 ft 305 kts 198°
2026-04-17 05:44 14.28178 120.82627 10447 ft 310 kts 198°
2026-04-17 05:44 14.26075 120.81876 10823 ft 327 kts 198°
2026-04-17 05:45 14.23860 120.81084 11131 ft 344 kts 198°
2026-04-17 05:45 14.21557 120.80258 11387 ft 361 kts 198°
2026-04-17 05:45 14.19100 120.79376 11643 ft 377 kts 198°
2026-04-17 05:45 14.16575 120.78471 11991 ft 389 kts 198°
2026-04-17 05:46 14.13931 120.77522 12544 ft 394 kts 198°
2026-04-17 05:46 14.11338 120.76592 13111 ft 397 kts 199°
2026-04-17 05:46 14.08695 120.75645 13717 ft 400 kts 199°
2026-04-17 05:46 14.06034 120.74691 14260 ft 403 kts 199°
2026-04-17 05:47 14.03355 120.73730 14699 ft 407 kts 199°
2026-04-17 05:47 14.00639 120.72757 14864 ft 409 kts 199°
2026-04-17 05:47 13.97957 120.71798 14883 ft 408 kts 199°
2026-04-17 05:47 13.95238 120.70826 14879 ft 408 kts 199°
2026-04-17 05:48 13.92563 120.69870 14877 ft 409 kts 199°
2026-04-17 05:48 13.89822 120.68887 15108 ft 415 kts 199°
2026-04-17 05:48 13.87073 120.67906 15684 ft 416 kts 199°
2026-04-17 05:48 13.84300 120.66919 16219 ft 418 kts 199°
2026-04-17 05:49 13.81555 120.65940 16678 ft 421 kts 199°
2026-04-17 05:49 13.78758 120.64943 17139 ft 425 kts 199°
2026-04-17 05:49 13.75930 120.63933 17630 ft 428 kts 199°
2026-04-17 05:49 13.74029 120.63254 17934 ft 430 kts 199°
2026-04-17 05:50 13.70251 120.61903 18464 ft 436 kts 199°
2026-04-17 05:50 13.67376 120.60877 18868 ft 439 kts 199°
2026-04-17 05:50 13.64452 120.59834 19343 ft 442 kts 199°
2026-04-17 05:50 13.61539 120.58782 19797 ft 444 kts 200°
2026-04-17 05:51 13.58664 120.57597 20242 ft 446 kts 203°
2026-04-17 05:51 13.56744 120.56700 20528 ft 447 kts 205°
2026-04-17 05:51 13.52993 120.54894 21076 ft 450 kts 205°
2026-04-17 05:51 13.50122 120.53504 21492 ft 452 kts 205°
2026-04-17 05:52 13.47280 120.52129 21886 ft 454 kts 205°
2026-04-17 05:52 13.44373 120.50728 22275 ft 456 kts 205°
2026-04-17 05:52 13.41495 120.49342 22671 ft 458 kts 205°
2026-04-17 05:52 13.38616 120.47956 23050 ft 459 kts 205°
2026-04-17 05:53 13.35689 120.46549 23413 ft 461 kts 205°
2026-04-17 05:53 13.32788 120.45154 23868 ft 461 kts 205°
2026-04-17 05:53 13.29864 120.43748 24305 ft 460 kts 205°
2026-04-17 05:53 13.26953 120.42351 24642 ft 462 kts 205°
2026-04-17 05:54 13.24035 120.40950 24954 ft 465 kts 205°
2026-04-17 05:54 13.21092 120.39538 25263 ft 467 kts 205°
2026-04-17 05:54 13.18112 120.38107 25576 ft 468 kts 205°
2026-04-17 05:54 13.15167 120.36694 25884 ft 470 kts 205°
2026-04-17 05:55 13.12199 120.35270 26180 ft 471 kts 205°
2026-04-17 05:55 13.09188 120.33819 26467 ft 473 kts 205°
2026-04-17 05:55 13.06237 120.32388 26735 ft 474 kts 205°
2026-04-17 05:55 13.03223 120.30927 26999 ft 476 kts 205°
2026-04-17 05:56 13.01209 120.29954 27206 ft 476 kts 205°
2026-04-17 05:56 12.97236 120.28042 27684 ft 474 kts 205°
2026-04-17 05:56 12.94230 120.26599 28034 ft 473 kts 204°
2026-04-17 05:56 12.91244 120.25167 28369 ft 472 kts 204°
2026-04-17 05:57 12.88251 120.23735 28701 ft 471 kts 204°
2026-04-17 05:57 12.85266 120.22315 29046 ft 471 kts 204°
2026-04-17 05:57 12.82325 120.20915 29405 ft 470 kts 205°
2026-04-17 05:57 12.79349 120.19497 29784 ft 468 kts 205°
2026-04-17 05:58 12.76384 120.18082 30145 ft 467 kts 205°
2026-04-17 05:58 12.73404 120.16660 30471 ft 467 kts 205°
2026-04-17 05:58 12.70443 120.15245 30743 ft 468 kts 205°
2026-04-17 05:59 12.64514 120.12413 31233 ft 471 kts 205°
2026-04-17 05:59 12.61539 120.10992 31482 ft 472 kts 205°
2026-04-17 05:59 12.58574 120.09576 31727 ft 472 kts 205°
2026-04-17 05:59 12.55594 120.08154 31885 ft 474 kts 205°
2026-04-17 06:00 12.52607 120.06727 31890 ft 474 kts 206°
2026-04-17 06:00 12.46601 120.03861 31897 ft 474 kts 206°
2026-04-17 06:01 12.40590 120.00993 31898 ft 474 kts 205°
2026-04-17 06:01 12.34629 119.98151 31899 ft 474 kts 205°
2026-04-17 06:02 12.28612 119.95287 31897 ft 474 kts 205°
2026-04-17 06:02 12.22647 119.92447 31900 ft 474 kts 206°
2026-04-17 06:03 12.16664 119.89600 31903 ft 474 kts 206°
2026-04-17 06:03 12.11650 119.87214 31901 ft 474 kts 206°
2026-04-17 06:04 12.04667 119.83892 31902 ft 474 kts 206°
2026-04-17 06:04 11.98696 119.81055 31902 ft 474 kts 206°
2026-04-17 06:05 11.92707 119.78211 31904 ft 474 kts 206°
2026-04-17 06:05 11.86694 119.75362 31906 ft 474 kts 205°
2026-04-17 06:06 11.80724 119.72543 31903 ft 474 kts 206°
2026-04-17 06:06 11.74696 119.69687 31901 ft 473 kts 206°
2026-04-17 06:07 11.68716 119.66857 31900 ft 474 kts 205°
2026-04-17 06:07 11.62715 119.64069 31893 ft 473 kts 205°
2026-04-17 06:08 11.56729 119.61298 31890 ft 473 kts 205°
2026-04-17 06:08 11.50728 119.58516 31888 ft 473 kts 205°
2026-04-17 06:09 11.44723 119.55730 31890 ft 473 kts 205°
2026-04-17 06:09 11.38685 119.52930 31893 ft 473 kts 205°
2026-04-17 06:10 11.33695 119.50618 31895 ft 473 kts 205°
2026-04-17 06:10 11.26700 119.47379 31449 ft 477 kts 205°
2026-04-17 06:10 11.23670 119.45976 30590 ft 480 kts 205°
2026-04-17 06:11 11.20622 119.44563 29664 ft 482 kts 205°
2026-04-17 06:11 11.17541 119.43137 28795 ft 482 kts 204°
2026-04-17 06:11 11.14506 119.41732 27984 ft 481 kts 204°
2026-04-17 06:11 11.11451 119.40321 27149 ft 481 kts 205°
2026-04-17 06:12 11.08416 119.38921 26298 ft 481 kts 205°
2026-04-17 06:12 11.05369 119.37513 25749 ft 474 kts 205°
2026-04-17 06:12 11.02400 119.36141 25207 ft 468 kts 205°
2026-04-17 06:12 10.99288 119.34703 24620 ft 463 kts 205°
2026-04-17 06:13 10.95977 119.33159 23995 ft 458 kts 205°
2026-04-17 06:13 10.89917 119.30333 22871 ft 449 kts 205°
2026-04-17 06:13 10.87075 119.29019 22342 ft 445 kts 205°
2026-04-17 06:13 10.84266 119.27727 21817 ft 442 kts 205°
2026-04-17 06:14 10.81447 119.26427 21272 ft 439 kts 205°
2026-04-17 06:14 10.78686 119.25155 20724 ft 436 kts 205°
2026-04-17 06:14 10.75938 119.23888 20170 ft 434 kts 205°
2026-04-17 06:14 10.73163 119.22610 19604 ft 432 kts 204°
2026-04-17 06:15 10.70431 119.21351 19059 ft 430 kts 204°
2026-04-17 06:15 10.67738 119.20110 18514 ft 427 kts 204°
2026-04-17 06:15 10.65010 119.18852 17949 ft 425 kts 204°
2026-04-17 06:15 10.62319 119.17612 17403 ft 423 kts 204°
2026-04-17 06:16 10.59661 119.16388 16855 ft 421 kts 204°
2026-04-17 06:16 10.56998 119.15162 16327 ft 417 kts 204°
2026-04-17 06:16 10.54370 119.13953 15825 ft 413 kts 204°
2026-04-17 06:16 10.52609 119.13143 15495 ft 410 kts 204°
2026-04-17 06:17 10.49167 119.11561 14847 ft 405 kts 204°
2026-04-17 06:17 10.46608 119.10383 14358 ft 402 kts 203°
2026-04-17 06:17 10.44088 119.09224 13880 ft 398 kts 203°
2026-04-17 06:17 10.41527 119.08046 13373 ft 395 kts 203°
2026-04-17 06:18 10.39029 119.06898 12883 ft 391 kts 203°
2026-04-17 06:18 10.36591 119.05750 12408 ft 388 kts 206°
2026-04-17 06:18 10.34213 119.04412 11915 ft 386 kts 211°
2026-04-17 06:18 10.32007 119.02904 11427 ft 384 kts 215°
2026-04-17 06:19 10.29852 119.01295 10942 ft 380 kts 216°
2026-04-17 06:19 10.27745 118.99700 10488 ft 376 kts 216°
2026-04-17 06:19 10.26349 118.98644 10382 ft 366 kts 216°
2026-04-17 06:19 10.23079 118.96179 10224 ft 340 kts 215°
2026-04-17 06:20 10.20634 118.94342 10104 ft 321 kts 215°
2026-04-17 06:20 10.18454 118.92707 10009 ft 304 kts 214°
2026-04-17 06:20 10.16269 118.91069 9757 ft 295 kts 214°
2026-04-17 06:20 10.14219 118.89738 9323 ft 292 kts 197°
2026-04-17 06:21 10.11597 118.89639 8870 ft 281 kts 162°
2026-04-17 06:21 10.09691 118.90231 8550 ft 278 kts 160°
2026-04-17 06:21 10.07835 118.90835 8228 ft 277 kts 160°
2026-04-17 06:21 10.05995 118.91417 7908 ft 276 kts 161°
2026-04-17 06:22 10.04140 118.91988 7591 ft 276 kts 161°
2026-04-17 06:22 10.02315 118.92537 7277 ft 275 kts 161°
2026-04-17 06:22 10.00490 118.93083 6964 ft 273 kts 161°
2026-04-17 06:22 9.98657 118.93630 6728 ft 268 kts 162°
2026-04-17 06:23 9.96879 118.94158 6500 ft 262 kts 162°
2026-04-17 06:23 9.95148 118.94672 6242 ft 258 kts 161°
2026-04-17 06:23 9.93427 118.95185 5985 ft 254 kts 161°
2026-04-17 06:23 9.91738 118.95689 5747 ft 250 kts 161°
2026-04-17 06:24 9.90080 118.96183 5476 ft 246 kts 161°
2026-04-17 06:24 9.88439 118.96670 5123 ft 239 kts 162°
2026-04-17 06:24 9.86867 118.97134 4796 ft 233 kts 161°
2026-04-17 06:24 9.85302 118.97599 4494 ft 232 kts 162°
2026-04-17 06:25 9.83771 118.98054 4254 ft 228 kts 162°
2026-04-17 06:25 9.82247 118.98459 4025 ft 224 kts 167°
2026-04-17 06:25 9.80689 118.98645 3798 ft 221 kts 176°
2026-04-17 06:25 9.79162 118.98624 3562 ft 217 kts 180°
2026-04-17 06:26 9.77664 118.98553 3280 ft 211 kts 181°
2026-04-17 06:26 9.76229 118.98482 3084 ft 200 kts 181°
2026-04-17 06:26 9.74864 118.98247 3002 ft 197 kts 205°
2026-04-17 06:26 9.73808 118.97406 2937 ft 197 kts 235°
2026-04-17 06:27 9.73274 118.96122 2879 ft 197 kts 265°
2026-04-17 06:27 9.73279 118.94738 2850 ft 199 kts 275°
2026-04-17 06:27 9.73381 118.93347 2773 ft 200 kts 275°
2026-04-17 06:27 9.73480 118.91931 2666 ft 200 kts 275°
2026-04-17 06:28 9.73562 118.90525 2557 ft 200 kts 274°
2026-04-17 06:28 9.73633 118.89122 2370 ft 199 kts 273°
2026-04-17 06:28 9.73696 118.87723 2103 ft 200 kts 273°
2026-04-17 06:28 9.73760 118.86301 1835 ft 200 kts 272°
2026-04-17 06:29 9.73820 118.84911 1578 ft 199 kts 273°
2026-04-17 06:29 9.73879 118.83511 1317 ft 199 kts 273°
2026-04-17 06:29 9.73941 118.82097 1052 ft 198 kts 272°
2026-04-17 06:29 9.74001 118.80713 966 ft 197 kts 273°
2026-04-17 06:30 9.74305 118.79367 940 ft 195 kts 304°
2026-04-17 06:30 9.75162 118.78278 966 ft 195 kts 316°
2026-04-17 06:30 9.76129 118.77306 962 ft 195 kts 318°
2026-04-17 06:30 9.77140 118.76337 956 ft 195 kts 319°
2026-04-17 06:31 9.78067 118.75343 947 ft 190 kts 300°
2026-04-17 06:31 9.78429 118.74136 974 ft 169 kts 278°
2026-04-17 06:31 9.78540 118.72971 958 ft 166 kts 274°
2026-04-17 06:31 9.78619 118.71790 952 ft 167 kts 274°
2026-04-17 06:32 9.78602 118.70625 954 ft 165 kts 258°
2026-04-17 06:32 9.78141 118.69584 989 ft 157 kts 228°
2026-04-17 06:32 9.77268 118.69011 954 ft 144 kts 187°
2026-04-17 06:32 9.76339 118.69185 927 ft 137 kts 145°
2026-04-17 06:33 9.75580 118.69785 1011 ft 140 kts 133°
2026-04-17 06:33 9.74914 118.70549 967 ft 142 kts 125°
2026-04-17 06:33 9.74464 118.71420 758 ft 142 kts 102°
2026-04-17 06:33 9.74375 118.72422 517 ft 141 kts 93°
2026-04-17 06:34 9.74320 118.73425 332 ft 141 kts 94°
2026-04-17 06:34 9.74275 118.74413 189 ft 136 kts 92°
2026-04-17 06:34 9.74230 118.75354 76 ft 127 kts 91°
2026-04-17 06:34 9.74203 118.75970 75 ft 44 kts 92°
2026-04-17 06:35 9.74199 118.76087 75 ft 6 kts 90°
2026-04-17 06:35 9.74206 118.76129 75 ft 6 kts 80°
2026-04-17 06:35 9.74202 118.76167 75 ft 4 kts 118°
2026-04-17 06:35 9.74184 118.76192 75 ft 0 kts 92°
2026-04-17 06:36 9.74189 118.76195 75 ft 0 kts
2026-04-17 06:36 9.74195 118.76183 75 ft 3 kts 285°
2026-04-17 06:36 9.74197 118.76138 75 ft 8 kts 271°
2026-04-17 06:36 9.74199 118.76069 75 ft 10 kts 271°
2026-04-17 06:37 9.74202 118.75991 75 ft 11 kts 272°
2026-04-17 06:37 9.74205 118.75906 75 ft 12 kts 273°